Location: Unspecified
(0.0000°N, 0.0000°E)
Time: 10:42:13
(UTC+02:00)

Tiros 1 despin weight - All Passes

Search period start: 30 June 2016 00:00
Search period end: 10 July 2016 00:00
Orbit: 596 x 645 km, 48.2° (Epoch: 29 June)

Date Brightness Start Highest point End Pass type
(mag) Time Alt. Az. Time Alt. Az. Time Alt. Az.
30 Jun - 08:41:20 10° S 08:44:36 20° SE 08:47:50 10° E daylight
30 Jun - 10:22:15 10° WSW 10:26:00 27° NW 10:29:47 10° N daylight
30 Jun - 20:48:55 10° NNW 20:53:12 35° NE 20:57:27 10° ESE visible
30 Jun - 22:31:25 10° W 22:34:40 18° SW 22:37:54 10° S visible
01 Jul - 08:57:30 10° SSW 09:01:50 56° SE 09:06:09 10° NE daylight
01 Jul - 21:05:42 10° NW 21:10:24 84° SW 21:15:07 10° SE visible
02 Jul - 07:35:59 10° SSE 07:37:34 12° SE 07:39:09 10° ESE visible
02 Jul - 09:14:46 10° SW 09:19:02 48° NW 09:23:17 10° NNE daylight
02 Jul - 19:42:38 10° N 19:46:10 21° NE 19:49:41 10° E daylight
02 Jul - 21:23:30 10° WNW 21:27:37 30° SW 21:31:45 10° S visible
03 Jul - 07:50:55 10° SSW 07:54:51 31° SE 07:58:47 10° ENE daylight
03 Jul - 09:33:20 10° W 09:36:16 17° NW 09:39:13 10° N daylight
03 Jul - 19:58:48 10° NNW 20:03:23 56° NE 20:08:00 10° SE daylight
03 Jul - 21:43:14 10° WSW 21:44:55 12° SW 21:46:35 10° SSW visible
04 Jul - 08:07:38 10° SW 08:12:04 87° NW 08:16:28 10° NE daylight
04 Jul - 18:37:08 10° NNE 18:39:06 12° NE 18:41:04 10° ENE daylight
04 Jul - 20:16:02 10° NW 20:20:36 52° SW 20:25:11 10° SSE daylight
05 Jul - 06:44:43 10° S 06:47:51 19° SE 06:50:58 10° E visible
05 Jul - 08:25:25 10° WSW 08:29:17 29° NW 08:33:06 10° N daylight
05 Jul - 18:52:12 10° NNW 18:56:22 32° NE 19:00:35 10° ESE daylight
05 Jul - 20:34:27 10° W 20:37:50 20° SW 20:41:15 10° S visible
06 Jul - 07:00:47 10° SSW 07:05:06 52° SE 07:09:23 10° NE visible
06 Jul - 08:45:29 10° WNW 08:46:33 11° NW 08:47:36 10° NW daylight
06 Jul - 19:08:54 10° NW 19:13:34 90° NNW 19:18:18 10° SE daylight
07 Jul - 05:39:36 10° SSE 05:40:49 11° SE 05:42:00 10° ESE visible
07 Jul - 07:17:59 10° SW 07:22:17 52° NW 07:26:34 10° NNE visible
07 Jul - 17:45:59 10° N 17:49:20 19° NE 17:52:42 10° E daylight
07 Jul - 19:26:37 10° WNW 19:30:47 32° SW 19:35:01 10° SSE daylight
08 Jul - 05:54:13 10° S 05:58:07 29° SE 06:01:58 10° ENE visible
08 Jul - 07:36:25 10° W 07:39:31 19° NW 07:42:36 10° N visible
08 Jul - 18:02:02 10° NNW 18:06:34 51° NE 18:11:08 10° SE daylight
08 Jul - 19:46:04 10° WSW 19:48:05 13° SW 19:50:07 10° SSW daylight
09 Jul - 06:10:51 10° SW 06:15:19 87° SE 06:19:44 10° NE visible
09 Jul - 16:40:45 10° NNE 16:42:17 11° NE 16:43:49 10° ENE daylight
09 Jul - 18:19:12 10° NW 18:23:45 56° SW 18:28:23 10° SSE daylight
